Weather History for Danville, VA

Change the Weather History Date:

Wednesday, July 17, 2013

  Actual Average Record
Temperature  
Mean Temperature 84 °F 78 °F  
Max Temperature 93 °F 88 °F 102 °F (1980)
Min Temperature 74 °F 69 °F 55 °F (1969)
Degree Days  
Heating Degree Days 0 0  
Month to date heating degree days 0 0  
Since 1 June heating degree days 0 3  
Since 1 July heating degree days 0 0  
Cooling Degree Days 19 13  
Month to date cooling degree days 237 221  
Year to date cooling degree days 710 662  
Since 1 June cooling degree days 548 518  
Growing Degree Days 32 (Base 50)    
Moisture  
Dew Point 72 °F    
Average Humidity 75    
Maximum Humidity 93    
Minimum Humidity 56    
Precipitation  
Precipitation 0.02 in 0.18 in 0.75 in (1995)
Month to date precipitation 7.88 2.52  
Year to date precipitation 34.03 24.25  
Snow  
Snow 0.00 in - - ()
Month to date snowfall 0.0  
Since 1 June snowfall 0.0  
Since 1 July snowfall 0.0  
Snow Depth 0.00 in    
Sea Level Pressure  
Sea Level Pressure 30.18 in    
Wind  
Wind Speed 2 mph (NE)    
Max Wind Speed 14 mph    
Max Gust Speed 17 mph    
Visibility 10 miles    
Events      
T = Trace of Precipitation, MM = Missing Value Source: NWS Daily Summary

Daily Weather History Graph

Daily Weather History Graph

Search for Another Location

Airport:

Trip Planner

Search our weather history database for the weather conditions in past years. The results will help you decide how hot, cold, wet, or windy it might be!

Date:

Astronomy

Jul. 17, 2013 Rise Set
Actual Time 6:12 AM EDT 8:34 PM EDT
Civil Twilight 5:42 AM EDT 9:04 PM EDT
Nautical Twilight 5:06 AM EDT 9:40 PM EDT
Astronomical Twilight 4:25 AM EDT 10:20 PM EDT
Moon 3:23 PM EDT (7/17) 1:14 AM EDT (7/17)
Length of Visible Light 15h 21m
Length of Day
14h 22m
Waxing Gibbous, 67% of the Moon is Illuminated
Jul 17
Waxing Gibbous
Jul 22
Full
Jul 29
Last Quarter
Aug 6
New
Aug 14
First Quarter

Hourly Weather History & Observations

Time (EDT) Temp. Heat Index Dew Point Humidity Pressure Visibility Wind Dir Wind Speed Gust Speed Precip Events Conditions
12:53 AM 78.1 °F - 71.1 °F 79% 30.19 in 10.0 mi Calm Calm - N/A   Clear
1:53 AM 75.9 °F - 71.1 °F 85% 30.19 in 10.0 mi Calm Calm - N/A   Clear
2:53 AM 75.0 °F - 71.1 °F 87% 30.19 in 10.0 mi Calm Calm - N/A   Clear
3:53 AM 73.9 °F - 71.1 °F 91% 30.19 in 10.0 mi Calm Calm - N/A   Mostly Cloudy
4:53 AM 73.9 °F - 71.1 °F 91% 30.19 in 10.0 mi Calm Calm - N/A   Partly Cloudy
5:53 AM 75.9 °F - 70.0 °F 82% 30.20 in 10.0 mi Calm Calm - N/A   Partly Cloudy
6:53 AM 77.0 °F - 71.1 °F 82% 30.21 in 10.0 mi Calm Calm - N/A   Mostly Cloudy
7:53 AM 77.0 °F - 72.0 °F 84% 30.22 in 8.0 mi Calm Calm - 0.02 in   Scattered Clouds
8:53 AM 82.9 °F 90.2 °F 75.0 °F 77% 30.22 in 10.0 mi North 3.5 mph - N/A   Clear
9:53 AM 86.0 °F 95.1 °F 75.0 °F 70% 30.22 in 10.0 mi NNE 4.6 mph - N/A   Clear
10:53 AM 88.0 °F 96.5 °F 73.9 °F 63% 30.22 in 10.0 mi Calm Calm - N/A   Clear
11:53 AM 90.0 °F 100.2 °F 75.0 °F 61% 30.22 in 10.0 mi Calm Calm - N/A   Clear
12:53 PM 90.0 °F 99.0 °F 73.9 °F 59% 30.20 in 10.0 mi ENE 4.6 mph - N/A   Scattered Clouds
1:53 PM 91.0 °F 99.3 °F 73.0 °F 55% 30.18 in 10.0 mi East 3.5 mph - N/A   Scattered Clouds
2:53 PM 91.9 °F 100.7 °F 73.0 °F 54% 30.16 in 10.0 mi Variable 5.8 mph - N/A   Clear
3:53 PM 91.9 °F 100.7 °F 73.0 °F 54% 30.15 in 10.0 mi ENE 4.6 mph - N/A   Scattered Clouds
4:53 PM 91.9 °F 100.7 °F 73.0 °F 54% 30.13 in 10.0 mi Calm Calm - N/A   Partly Cloudy
5:53 PM 91.9 °F 101.3 °F 73.9 °F 55% 30.11 in 10.0 mi Variable 3.5 mph - N/A   Partly Cloudy
6:53 PM 84.9 °F 94.1 °F 75.9 °F 74% 30.13 in 10.0 mi Calm Calm - N/A   Mostly Cloudy
7:53 PM 82.0 °F 84.9 °F 68.0 °F 62% 30.13 in 10.0 mi NW 6.9 mph - N/A   Clear
8:53 PM 78.1 °F - 71.1 °F 79% 30.15 in 10.0 mi Calm Calm - N/A   Partly Cloudy
9:53 PM 75.9 °F - 71.1 °F 85% 30.14 in 10.0 mi Calm Calm - N/A   Clear
10:53 PM 75.0 °F - 71.1 °F 87% 30.14 in 10.0 mi Calm Calm - N/A   Clear
11:53 PM 75.9 °F - 71.1 °F 85% 30.14 in 10.0 mi Calm Calm - N/A   Clear